Change the Weather History Date:

Sunday, October 19, 2014

  Actual Average Record
Temperature  
Mean Temperature 42 °F -  
Max Temperature 53 °F 57 °F 86 °F (1953)
Min Temperature 30 °F 39 °F 24 °F (1972)
Degree Days  
Heating Degree Days 24    
Moisture  
Dew Point 33 °F    
Average Humidity 71    
Maximum Humidity 100    
Minimum Humidity 41    
Precipitation  
Precipitation 0.00 in - - ()
Sea Level Pressure  
Sea Level Pressure 30.11 in    
Wind  
Wind Speed 5 mph (West)    
Max Wind Speed 13 mph    
Max Gust Speed 16 mph    
Visibility 10 miles    
Events      
Averages and records for this station are not official NWS values.
T = Trace of Precipitation, MM = Missing Value Source: NWS Daily Summary

Daily Weather History Graph

Daily Weather History Graph

Search for Another Location

Airport or City:

Trip Planner

Search our weather history database for the weather conditions in past years. The results will help you decide how hot, cold, wet, or windy it might be!

Date:

Astronomy

Oct. 19, 2014 Rise Set
Actual Time 7:50 AM EDT 6:45 PM EDT
Civil Twilight 7:22 AM EDT 7:14 PM EDT
Nautical Twilight 6:50 AM EDT 7:46 PM EDT
Astronomical Twilight 6:17 AM EDT 8:18 PM EDT
Moon 3:39 AM EDT (10/19) 4:40 PM EDT (10/19)
Length of Visible Light 11h 51m
Length of Day
10h 55m
Waning Crescent, 17% of the Moon is Illuminated
Oct 19
Waning Crescent
Oct 23
New
Oct 30
First Quarter
Nov 6
Full
Nov 14
Last Quarter

Hourly Weather History & Observations

Time (EDT) Temp. Windchill Dew Point Humidity Pressure Visibility Wind Dir Wind Speed Gust Speed Precip Events Conditions
12:12 AM 44.6 °F 43.1 °F 37.4 °F 76% 30.10 in 10.0 mi NW 3.5 mph - N/A   Overcast
12:32 AM 44.6 °F 41.4 °F 35.6 °F 71% 30.10 in 10.0 mi NNW 5.8 mph - N/A   Overcast
12:52 AM 42.8 °F 41.1 °F 35.6 °F 76% 30.10 in 10.0 mi NW 3.5 mph - N/A   Mostly Cloudy
1:12 AM 41.0 °F 37.1 °F 35.6 °F 81% 30.11 in 10.0 mi WNW 5.8 mph - N/A   Clear
1:25 AM 41.0 °F 35.8 °F 35.6 °F 81% 30.11 in 10.0 mi NW 8.1 mph - N/A   Clear
1:47 AM 39.2 °F 35.0 °F 35.6 °F 87% 30.12 in 10.0 mi NW 5.8 mph - N/A   Clear
2:10 AM 39.2 °F 34.2 °F 33.8 °F 81% 30.12 in 10.0 mi NW 6.9 mph - N/A   Clear
2:32 AM 37.4 °F 32.8 °F 33.8 °F 87% 30.12 in 10.0 mi NW 5.8 mph - N/A   Clear
2:42 AM 37.4 °F 33.8 °F 33.8 °F 87% 30.13 in 10.0 mi NW 4.6 mph - N/A   Clear
3:17 AM 37.4 °F 32.8 °F 33.8 °F 87% 30.13 in 10.0 mi NW 5.8 mph - N/A   Clear
3:31 AM 37.4 °F 32.1 °F 33.8 °F 87% 30.13 in 10.0 mi NW 6.9 mph - N/A   Clear
3:53 AM 35.6 °F 31.7 °F 33.8 °F 93% 30.13 in 10.0 mi WNW 4.6 mph - N/A   Clear
4:08 AM 35.6 °F 32.8 °F 32.0 °F 87% 30.13 in 10.0 mi West 3.5 mph - N/A   Clear
4:32 AM 33.8 °F - 32.0 °F 93% 30.14 in 10.0 mi Calm Calm - N/A   Clear
4:53 AM 33.8 °F 30.8 °F 30.2 °F 87% 30.14 in 10.0 mi WNW 3.5 mph - N/A   Clear
5:13 AM 33.8 °F 29.6 °F 30.2 °F 87% 30.15 in 10.0 mi WNW 4.6 mph - N/A   Clear
5:33 AM 33.8 °F 30.8 °F 30.2 °F 87% 30.14 in 10.0 mi WNW 3.5 mph - N/A   Clear
5:53 AM 32.0 °F - 30.2 °F 93% 30.15 in 10.0 mi Calm Calm - N/A   Clear
6:12 AM 32.0 °F 28.7 °F 30.2 °F 93% 30.15 in 10.0 mi WNW 3.5 mph - N/A   Clear
6:27 AM 32.0 °F 28.7 °F 30.2 °F 93% 30.16 in 10.0 mi NW 3.5 mph - N/A   Clear
6:52 AM 32.0 °F 28.7 °F 30.2 °F 93% 30.16 in 10.0 mi WNW 3.5 mph - N/A   Clear
6:58 AM 32.0 °F 28.7 °F 30.2 °F 93% 30.16 in 10.0 mi WNW 3.5 mph - N/A   Clear
7:34 AM 30.2 °F - 30.2 °F 100% 30.17 in 10.0 mi Calm Calm - N/A   Clear
7:49 AM 30.2 °F - 28.4 °F 93% 30.17 in 10.0 mi Calm Calm - N/A   Clear
8:15 AM 30.2 °F - 30.2 °F 100% 30.17 in 10.0 mi NNW 2.3 mph - N/A   Clear
8:17 AM 30.2 °F 26.7 °F 30.2 °F 100% 30.17 in 10.0 mi NNW 3.5 mph - N/A   Clear
8:34 AM 32.0 °F - 30.2 °F 93% 30.18 in 10.0 mi Calm Calm - N/A   Clear
8:54 AM 33.8 °F 29.6 °F 32.0 °F 93% 30.19 in 10.0 mi NNW 4.6 mph - N/A   Clear
9:07 AM 35.6 °F 29.9 °F 32.0 °F 87% 30.20 in 10.0 mi NNW 6.9 mph - N/A   Clear
9:34 AM 37.4 °F 34.9 °F 33.8 °F 87% 30.20 in 10.0 mi NNW 3.5 mph - N/A   Clear
9:54 AM 39.2 °F - 32.0 °F 75% 30.19 in 10.0 mi Calm Calm - N/A   Clear
10:14 AM 41.0 °F 39.0 °F 33.8 °F 76% 30.19 in 10.0 mi NW 3.5 mph - N/A   Clear
10:35 AM 41.0 °F - 32.0 °F 70% 30.19 in 10.0 mi Calm Calm - N/A   Clear
10:55 AM 42.8 °F 41.1 °F 33.8 °F 70% 30.20 in 10.0 mi West 3.5 mph - N/A   Clear
11:15 AM 42.8 °F - 33.8 °F 70% 30.19 in 10.0 mi Calm Calm - N/A   Clear
11:35 AM 44.6 °F 42.2 °F 33.8 °F 66% 30.19 in 10.0 mi WSW 4.6 mph - N/A   Clear
11:54 AM 46.4 °F 45.2 °F 33.8 °F 62% 30.19 in 10.0 mi West 3.5 mph - N/A   Clear
12:14 PM 46.4 °F 42.4 °F 33.8 °F 62% 30.19 in 10.0 mi West 8.1 mph - N/A   Clear
12:35 PM 46.4 °F 43.5 °F 33.8 °F 62% 30.19 in 10.0 mi WSW 5.8 mph - N/A   Clear
12:48 PM 48.2 °F - 33.8 °F 58% 30.18 in 10.0 mi West 8.1 mph - N/A   Clear
1:15 PM 48.2 °F - 33.8 °F 58% 30.17 in 10.0 mi West 3.5 mph - N/A   Clear
1:35 PM 48.2 °F - 32.0 °F 54% 30.16 in 10.0 mi West 9.2 mph - N/A   Clear
1:56 PM 50.0 °F - 33.8 °F 54% 30.14 in 10.0 mi SW 6.9 mph - N/A   Clear
2:16 PM 50.0 °F - 33.8 °F 54% 30.13 in 10.0 mi SW 8.1 mph - N/A   Clear
2:36 PM 51.8 °F - 33.8 °F 50% 30.12 in 10.0 mi WSW 10.4 mph - N/A   Clear
2:56 PM 51.8 °F - 33.8 °F 50% 30.11 in 10.0 mi SW 9.2 mph - N/A   Clear
3:16 PM 51.8 °F - 33.8 °F 50% 30.11 in 10.0 mi WSW 8.1 mph - N/A   Clear
3:36 PM 51.8 °F - 32.0 °F 47% 30.10 in 10.0 mi SW 11.5 mph - N/A   Clear
3:56 PM 51.8 °F - 32.0 °F 47% 30.09 in 10.0 mi West 11.5 mph - N/A   Clear
4:16 PM 53.6 °F - 30.2 °F 41% 30.09 in 10.0 mi WSW 12.7 mph 16.1 mph N/A   Clear
4:35 PM 51.8 °F - 30.2 °F 44% 30.08 in 10.0 mi WSW 9.2 mph - N/A   Clear
4:51 PM 51.8 °F - 30.2 °F 44% 30.08 in 10.0 mi SW 5.8 mph - N/A   Clear
5:11 PM 51.8 °F - 30.2 °F 44% 30.07 in 10.0 mi SW 9.2 mph - N/A   Clear
5:32 PM 51.8 °F - 30.2 °F 44% 30.07 in 10.0 mi SW 8.1 mph - N/A   Clear
5:52 PM 51.8 °F - 30.2 °F 44% 30.07 in 10.0 mi SW 8.1 mph - N/A   Clear
6:12 PM 50.0 °F - 30.2 °F 47% 30.06 in 10.0 mi SW 8.1 mph - N/A   Clear
6:32 PM 48.2 °F - 30.2 °F 50% 30.06 in 10.0 mi SSW 3.5 mph - N/A   Clear
6:52 PM 48.2 °F - 32.0 °F 54% 30.05 in 10.0 mi SSW 4.6 mph - N/A   Clear
7:12 PM 46.4 °F 44.3 °F 32.0 °F 57% 30.05 in 10.0 mi SSW 4.6 mph - N/A   Clear
7:32 PM 44.6 °F 43.1 °F 33.8 °F 66% 30.05 in 10.0 mi South 3.5 mph - N/A   Clear
7:52 PM 44.6 °F 42.2 °F 33.8 °F 66% 30.04 in 10.0 mi South 4.6 mph - N/A   Clear
8:12 PM 46.4 °F 44.3 °F 33.8 °F 62% 30.03 in 10.0 mi South 4.6 mph - N/A   Clear
8:32 PM 44.6 °F 42.2 °F 33.8 °F 66% 30.03 in 10.0 mi South 4.6 mph - N/A   Clear
8:47 PM 46.4 °F 45.2 °F 33.8 °F 62% 30.02 in 10.0 mi SSW 3.5 mph - N/A   Clear
9:03 PM 46.4 °F 44.3 °F 33.8 °F 62% 30.02 in 10.0 mi South 4.6 mph - N/A   Clear
9:32 PM 46.4 °F 42.9 °F 33.8 °F 62% 30.00 in 10.0 mi SSW 6.9 mph - N/A   Clear
9:53 PM 46.4 °F 43.5 °F 33.8 °F 62% 29.99 in 10.0 mi SSW 5.8 mph - N/A   Clear
10:13 PM 46.4 °F 44.3 °F 35.6 °F 66% 29.99 in 10.0 mi SSW 4.6 mph - N/A   Clear
10:33 PM 46.4 °F 43.5 °F 35.6 °F 66% 29.98 in 10.0 mi South 5.8 mph - N/A   Clear
10:53 PM 46.4 °F 44.3 °F 35.6 °F 66% 29.98 in 10.0 mi SSW 4.6 mph - N/A   Scattered Clouds
11:13 PM 46.4 °F 43.5 °F 35.6 °F 66% 29.97 in 10.0 mi South 5.8 mph - N/A   Clear
11:33 PM 46.4 °F 43.5 °F 35.6 °F 66% 29.97 in 10.0 mi SSW 5.8 mph - N/A   Scattered Clouds
11:54 PM 46.4 °F 44.3 °F 35.6 °F 66% 29.96 in 10.0 mi South 4.6 mph - N/A   Mostly Cloudy